ZSMUL FZAA-FZEA

Flight info

Callsign ZSMUL
Flight time 1h 35m
Altitude 17000
Route GUSAR4A GUSAR V30 EMVOT OVRI1C
Aircraft DC6/M-SDFGRWY/S

Departure

Time 2026-05-05 13:13
Airport Ndjili International Airport (FZAA)

Arrival

Time 2026-05-05 14:49
Airport Mbandaka Airport (FZEA)
Time Latitude Longitude Altitude Speed Heading
2026-05-05 13:07 -4.38844 15.44500 1010 ft 6 kts 25°
2026-05-05 13:08 -4.38795 15.44520 1011 ft 8 kts 20°
2026-05-05 13:08 -4.38754 15.44540 1011 ft 5 kts 39°
2026-05-05 13:08 -4.38736 15.44559 1011 ft 4 kts 50°
2026-05-05 13:08 -4.38718 15.44583 1011 ft 5 kts 58°
2026-05-05 13:09 -4.38694 15.44623 1011 ft 9 kts 56°
2026-05-05 13:09 -4.38655 15.44680 1011 ft 10 kts 55°
2026-05-05 13:09 -4.38622 15.44729 1011 ft 7 kts 56°
2026-05-05 13:09 -4.38599 15.44763 1011 ft 5 kts 56°
2026-05-05 13:10 -4.38581 15.44790 1011 ft 5 kts 57°
2026-05-05 13:10 -4.38558 15.44825 1011 ft 7 kts 57°
2026-05-05 13:10 -4.38529 15.44869 1011 ft 9 kts 59°
2026-05-05 13:10 -4.38487 15.44916 1011 ft 8 kts 13°
2026-05-05 13:11 -4.38430 15.44897 1012 ft 11 kts 328°
2026-05-05 13:11 -4.38360 15.44850 1012 ft 13 kts 310°
2026-05-05 13:11 -4.38364 15.44775 1012 ft 11 kts 236°
2026-05-05 13:11 -4.38439 15.44659 1012 ft 36 kts 237°
2026-05-05 13:12 -4.38645 15.44341 1011 ft 71 kts 237°
2026-05-05 13:12 -4.38966 15.43848 1009 ft 98 kts 237°
2026-05-05 13:12 -4.39367 15.43222 1054 ft 114 kts 239°
2026-05-05 13:12 -4.39817 15.42525 1153 ft 123 kts 239°
2026-05-05 13:13 -4.40275 15.41782 1336 ft 127 kts 242°
2026-05-05 13:13 -4.40689 15.40969 1453 ft 140 kts 245°
2026-05-05 13:13 -4.41149 15.40080 1586 ft 150 kts 243°
2026-05-05 13:13 -4.41719 15.39162 1788 ft 155 kts 235°
2026-05-05 13:14 -4.42355 15.38276 1976 ft 160 kts 234°
2026-05-05 13:14 -4.42972 15.37327 2133 ft 166 kts 239°
2026-05-05 13:14 -4.43568 15.36319 2283 ft 169 kts 239°
2026-05-05 13:14 -4.44189 15.35301 2434 ft 172 kts 238°
2026-05-05 13:15 -4.44942 15.34376 2500 ft 177 kts 219°
2026-05-05 13:15 -4.46097 15.33945 2575 ft 183 kts 185°
2026-05-05 13:15 -4.47335 15.34238 2680 ft 187 kts 152°
2026-05-05 13:15 -4.48248 15.35162 2783 ft 189 kts 119°
2026-05-05 13:16 -4.48556 15.36435 2893 ft 190 kts 88°
2026-05-05 13:16 -4.48174 15.37674 3044 ft 189 kts 56°
2026-05-05 13:16 -4.47206 15.38542 3155 ft 188 kts 25°
2026-05-05 13:16 -4.45947 15.38847 3346 ft 183 kts
2026-05-05 13:17 -4.44741 15.39169 3515 ft 183 kts 24°
2026-05-05 13:17 -4.43645 15.39812 3701 ft 181 kts 31°
2026-05-05 13:17 -4.42569 15.40466 3862 ft 180 kts 30°
2026-05-05 13:17 -4.41499 15.41102 4012 ft 179 kts 30°
2026-05-05 13:18 -4.40427 15.41743 4163 ft 179 kts 30°
2026-05-05 13:18 -4.39406 15.42433 4308 ft 180 kts 34°
2026-05-05 13:18 -4.38345 15.43104 4473 ft 180 kts 31°
2026-05-05 13:18 -4.37284 15.43777 4641 ft 181 kts 33°
2026-05-05 13:19 -4.36223 15.44466 4805 ft 181 kts 33°
2026-05-05 13:19 -4.35163 15.45154 4963 ft 181 kts 33°
2026-05-05 13:19 -4.34119 15.45833 5121 ft 181 kts 33°
2026-05-05 13:19 -4.33058 15.46522 5272 ft 181 kts 33°
2026-05-05 13:20 -4.32003 15.47207 5434 ft 180 kts 33°
2026-05-05 13:20 -4.30963 15.47883 5589 ft 180 kts 34°
2026-05-05 13:20 -4.29912 15.48567 5747 ft 179 kts 34°
2026-05-05 13:20 -4.28860 15.49249 5889 ft 179 kts 34°
2026-05-05 13:21 -4.27826 15.49922 6025 ft 178 kts 34°
2026-05-05 13:21 -4.26782 15.50600 6164 ft 178 kts 34°
2026-05-05 13:21 -4.25740 15.51275 6309 ft 178 kts 34°
2026-05-05 13:21 -4.24707 15.51947 6463 ft 179 kts 34°
2026-05-05 13:22 -4.23657 15.52627 6603 ft 180 kts 34°
2026-05-05 13:22 -4.22601 15.53312 6747 ft 180 kts 34°
2026-05-05 13:22 -4.21546 15.53996 6889 ft 181 kts 33°
2026-05-05 13:22 -4.20503 15.54673 7022 ft 181 kts 34°
2026-05-05 13:23 -4.19442 15.55363 7164 ft 181 kts 34°
2026-05-05 13:23 -4.18394 15.56042 7306 ft 181 kts 34°
2026-05-05 13:23 -4.17335 15.56728 7443 ft 181 kts 33°
2026-05-05 13:23 -4.16275 15.57417 7576 ft 181 kts 33°
2026-05-05 13:24 -4.15210 15.58108 7707 ft 181 kts 33°
2026-05-05 13:24 -4.14162 15.58786 7829 ft 181 kts 33°
2026-05-05 13:24 -4.13102 15.59475 7957 ft 181 kts 33°
2026-05-05 13:24 -4.12038 15.60165 8088 ft 183 kts 33°
2026-05-05 13:25 -4.10968 15.60858 8235 ft 184 kts 33°
2026-05-05 13:25 -4.09891 15.61559 8384 ft 184 kts 33°
2026-05-05 13:25 -4.08810 15.62258 8523 ft 185 kts 33°
2026-05-05 13:25 -4.07738 15.62953 8657 ft 185 kts 33°
2026-05-05 13:26 -4.06653 15.63658 8804 ft 186 kts 33°
2026-05-05 13:26 -4.05565 15.64363 8943 ft 186 kts 33°
2026-05-05 13:26 -4.04476 15.65068 9090 ft 186 kts 33°
2026-05-05 13:26 -4.03400 15.65767 9221 ft 186 kts 33°
2026-05-05 13:27 -4.02307 15.66474 9362 ft 187 kts 33°
2026-05-05 13:27 -4.01212 15.67186 9495 ft 187 kts 33°
2026-05-05 13:27 -4.00131 15.67886 9626 ft 187 kts 33°
2026-05-05 13:27 -3.99039 15.68593 9752 ft 187 kts 33°
2026-05-05 13:28 -3.97948 15.69302 9864 ft 187 kts 33°
2026-05-05 13:28 -3.96867 15.70002 9973 ft 186 kts 33°
2026-05-05 13:28 -3.95778 15.70710 10083 ft 186 kts 33°
2026-05-05 13:28 -3.94684 15.71417 10188 ft 186 kts 32°
2026-05-05 13:29 -3.93601 15.72121 10301 ft 188 kts 33°
2026-05-05 13:29 -3.92500 15.72833 10426 ft 189 kts 32°
2026-05-05 13:29 -3.91396 15.73549 10553 ft 189 kts 32°
2026-05-05 13:29 -3.90283 15.74270 10680 ft 190 kts 32°
2026-05-05 13:30 -3.89187 15.74980 10805 ft 190 kts 32°
2026-05-05 13:30 -3.88071 15.75705 10926 ft 190 kts 32°
2026-05-05 13:30 -3.86959 15.76425 11056 ft 190 kts 32°
2026-05-05 13:30 -3.85844 15.77148 11177 ft 190 kts 32°
2026-05-05 13:31 -3.84743 15.77860 11300 ft 191 kts 32°
2026-05-05 13:31 -3.83627 15.78585 11418 ft 191 kts 32°
2026-05-05 13:31 -3.82510 15.79308 11535 ft 191 kts 32°
2026-05-05 13:31 -3.81389 15.80034 11664 ft 192 kts 32°
2026-05-05 13:32 -3.80278 15.80754 11797 ft 192 kts 32°
2026-05-05 13:32 -3.79153 15.81483 11924 ft 193 kts 32°
2026-05-05 13:32 -3.78022 15.82217 12053 ft 193 kts 32°
2026-05-05 13:32 -3.76889 15.82950 12172 ft 193 kts 32°
2026-05-05 13:33 -3.75774 15.83673 12312 ft 193 kts 32°
2026-05-05 13:33 -3.74640 15.84407 12460 ft 194 kts 32°
2026-05-05 13:33 -3.73506 15.85143 12584 ft 194 kts 32°
2026-05-05 13:33 -3.72378 15.85873 12726 ft 194 kts 32°
2026-05-05 13:34 -3.71241 15.86609 12849 ft 195 kts 32°
2026-05-05 13:34 -3.70099 15.87351 12981 ft 195 kts 32°
2026-05-05 13:34 -3.68962 15.88086 13102 ft 195 kts 32°
2026-05-05 13:34 -3.67835 15.88816 13230 ft 195 kts 32°
2026-05-05 13:35 -3.66692 15.89555 13349 ft 194 kts 32°
2026-05-05 13:35 -3.65554 15.90294 13472 ft 194 kts 32°
2026-05-05 13:35 -3.64418 15.91030 13579 ft 194 kts 32°
2026-05-05 13:35 -3.63664 15.91517 13661 ft 194 kts 32°
2026-05-05 13:36 -3.62161 15.92491 13790 ft 194 kts 32°
2026-05-05 13:36 -3.61024 15.93228 13882 ft 194 kts 32°
2026-05-05 13:36 -3.59885 15.93965 13964 ft 194 kts 32°
2026-05-05 13:36 -3.59130 15.94455 14034 ft 194 kts 32°
2026-05-05 13:37 -3.57991 15.95191 14117 ft 194 kts 32°
2026-05-05 13:37 -3.56483 15.96169 14233 ft 195 kts 32°
2026-05-05 13:37 -3.55339 15.96909 14335 ft 196 kts 32°
2026-05-05 13:37 -3.54577 15.97402 14406 ft 197 kts 32°
2026-05-05 13:38 -3.53426 15.98148 14508 ft 197 kts 32°
2026-05-05 13:38 -3.52268 15.98898 14613 ft 198 kts 32°
2026-05-05 13:38 -3.51110 15.99648 14717 ft 198 kts 32°
2026-05-05 13:38 -3.49949 16.00399 14821 ft 198 kts 32°
2026-05-05 13:39 -3.48787 16.01152 14923 ft 199 kts 32°
2026-05-05 13:39 -3.47640 16.01894 15037 ft 199 kts 32°
2026-05-05 13:39 -3.46467 16.02653 15138 ft 200 kts 32°
2026-05-05 13:39 -3.45311 16.03401 15242 ft 200 kts 32°
2026-05-05 13:40 -3.44136 16.04163 15355 ft 200 kts 32°
2026-05-05 13:40 -3.42961 16.04924 15461 ft 201 kts 32°
2026-05-05 13:40 -3.41786 16.05684 15564 ft 201 kts 32°
2026-05-05 13:40 -3.40621 16.06438 15673 ft 201 kts 32°
2026-05-05 13:41 -3.39444 16.07200 15771 ft 201 kts 32°
2026-05-05 13:41 -3.38264 16.07964 15872 ft 201 kts 32°
2026-05-05 13:41 -3.37084 16.08727 15972 ft 201 kts 32°
2026-05-05 13:41 -3.35921 16.09480 16068 ft 201 kts 32°
2026-05-05 13:42 -3.34740 16.10243 16167 ft 201 kts 32°
2026-05-05 13:42 -3.33565 16.11006 16246 ft 201 kts 32°
2026-05-05 13:42 -3.32388 16.11767 16357 ft 202 kts 32°
2026-05-05 13:42 -3.31205 16.12533 16442 ft 202 kts 32°
2026-05-05 13:43 -3.30023 16.13296 16538 ft 202 kts 32°
2026-05-05 13:43 -3.28853 16.14048 16631 ft 202 kts 32°
2026-05-05 13:43 -3.27668 16.14812 16723 ft 202 kts 32°
2026-05-05 13:43 -3.26481 16.15575 16809 ft 202 kts 32°
2026-05-05 13:44 -3.25310 16.16330 16892 ft 202 kts 32°
2026-05-05 13:44 -3.24130 16.17092 16981 ft 202 kts 32°
2026-05-05 13:44 -3.22924 16.17867 16971 ft 207 kts 32°
2026-05-05 13:44 -3.21698 16.18658 16972 ft 211 kts 32°
2026-05-05 13:45 -3.20464 16.19452 16967 ft 211 kts 32°
2026-05-05 13:45 -3.19234 16.20246 16962 ft 210 kts 32°
2026-05-05 13:45 -3.18008 16.21034 16956 ft 209 kts 32°
2026-05-05 13:45 -3.16784 16.21823 16953 ft 209 kts 32°
2026-05-05 13:46 -3.15559 16.22611 16951 ft 208 kts 32°
2026-05-05 13:46 -3.14353 16.23389 16951 ft 208 kts 32°
2026-05-05 13:46 -3.13136 16.24172 16946 ft 207 kts 32°
2026-05-05 13:46 -3.11925 16.24953 16949 ft 207 kts 32°
2026-05-05 13:47 -3.10714 16.25731 16949 ft 206 kts 32°
2026-05-05 13:47 -3.09527 16.26498 16952 ft 205 kts 32°
2026-05-05 13:47 -3.08327 16.27269 16944 ft 204 kts 32°
2026-05-05 13:47 -3.07130 16.28038 16945 ft 203 kts 32°
2026-05-05 13:48 -3.05941 16.28805 16948 ft 203 kts 32°
2026-05-05 13:48 -3.04754 16.29570 16946 ft 202 kts 32°
2026-05-05 13:48 -3.03586 16.30322 16942 ft 202 kts 32°
2026-05-05 13:48 -3.02402 16.31083 16948 ft 201 kts 32°
2026-05-05 13:49 -3.01228 16.31840 16947 ft 200 kts 32°
2026-05-05 13:49 -3.00058 16.32592 16948 ft 200 kts 32°
2026-05-05 13:49 -2.98883 16.33351 16951 ft 201 kts 32°
2026-05-05 13:49 -2.97716 16.34100 16957 ft 202 kts 32°
2026-05-05 13:50 -2.96533 16.34863 16963 ft 202 kts 32°
2026-05-05 13:50 -2.95341 16.35629 16967 ft 204 kts 32°
2026-05-05 13:50 -2.94142 16.36403 16961 ft 205 kts 32°
2026-05-05 13:50 -2.92949 16.37169 16962 ft 206 kts 32°
2026-05-05 13:51 -2.91736 16.37951 16962 ft 207 kts 32°
2026-05-05 13:51 -2.90519 16.38733 16965 ft 209 kts 32°
2026-05-05 13:51 -2.89287 16.39527 16963 ft 210 kts 32°
2026-05-05 13:51 -2.88064 16.40313 16964 ft 211 kts 32°
2026-05-05 13:52 -2.86820 16.41116 16959 ft 212 kts 32°
2026-05-05 13:52 -2.85567 16.41921 16962 ft 214 kts 32°
2026-05-05 13:52 -2.84311 16.42730 16959 ft 215 kts 32°
2026-05-05 13:52 -2.83060 16.43534 16960 ft 216 kts 32°
2026-05-05 13:53 -2.81787 16.44355 16958 ft 217 kts 32°
2026-05-05 13:53 -2.80509 16.45176 16961 ft 218 kts 32°
2026-05-05 13:53 -2.79239 16.45995 16959 ft 220 kts 32°
2026-05-05 13:53 -2.77947 16.46825 16957 ft 221 kts 32°
2026-05-05 13:54 -2.76650 16.47660 16954 ft 222 kts 32°
2026-05-05 13:54 -2.75348 16.48497 16961 ft 223 kts 32°
2026-05-05 13:54 -2.74051 16.49333 16954 ft 223 kts 32°
2026-05-05 13:54 -2.72737 16.50177 16957 ft 224 kts 32°
2026-05-05 13:55 -2.71435 16.51016 16956 ft 225 kts 32°
2026-05-05 13:55 -2.70107 16.51871 16955 ft 226 kts 32°
2026-05-05 13:55 -2.68776 16.52726 16952 ft 227 kts 32°
2026-05-05 13:55 -2.67455 16.53577 16953 ft 228 kts 32°
2026-05-05 13:56 -2.66116 16.54438 16952 ft 229 kts 32°
2026-05-05 13:56 -2.64793 16.55290 16958 ft 229 kts 32°
2026-05-05 13:56 -2.63447 16.56154 16954 ft 230 kts 32°
2026-05-05 13:56 -2.62092 16.57026 16955 ft 230 kts 32°
2026-05-05 13:57 -2.60744 16.57894 16957 ft 231 kts 32°
2026-05-05 13:57 -2.59391 16.58764 16957 ft 231 kts 32°
2026-05-05 13:57 -2.58049 16.59627 16950 ft 232 kts 32°
2026-05-05 13:57 -2.56689 16.60503 16952 ft 232 kts 32°
2026-05-05 13:58 -2.55343 16.61368 16956 ft 232 kts 32°
2026-05-05 13:58 -2.53975 16.62248 16949 ft 233 kts 32°
2026-05-05 13:58 -2.52608 16.63127 16951 ft 233 kts 32°
2026-05-05 13:58 -2.51237 16.64008 16952 ft 233 kts 32°
2026-05-05 13:59 -2.48508 16.65764 16947 ft 234 kts 32°
2026-05-05 13:59 -2.47148 16.66639 16949 ft 234 kts 32°
2026-05-05 14:00 -2.44398 16.68408 16950 ft 235 kts 32°
2026-05-05 14:00 -2.43487 16.68993 16949 ft 235 kts 32°
2026-05-05 14:00 -2.41645 16.70178 16940 ft 235 kts 32°
2026-05-05 14:00 -2.40265 16.71066 16941 ft 235 kts 32°
2026-05-05 14:01 -2.38899 16.71944 16940 ft 235 kts 32°
2026-05-05 14:01 -2.37518 16.72831 16939 ft 235 kts 32°
2026-05-05 14:01 -2.36157 16.73707 16945 ft 235 kts 32°
2026-05-05 14:01 -2.34774 16.74596 16939 ft 235 kts 32°
2026-05-05 14:02 -2.33390 16.75486 16944 ft 235 kts 32°
2026-05-05 14:02 -2.32024 16.76364 16940 ft 236 kts 32°
2026-05-05 14:02 -2.30641 16.77252 16942 ft 236 kts 32°
2026-05-05 14:02 -2.29253 16.78144 16942 ft 236 kts 32°
2026-05-05 14:03 -2.27869 16.79032 16940 ft 236 kts 32°
2026-05-05 14:03 -2.26505 16.79909 16941 ft 236 kts 32°
2026-05-05 14:03 -2.25122 16.80796 16940 ft 236 kts 32°
2026-05-05 14:03 -2.23747 16.81680 16940 ft 236 kts 32°
2026-05-05 14:04 -2.22362 16.82569 16940 ft 236 kts 32°
2026-05-05 14:04 -2.20978 16.83458 16939 ft 236 kts 32°
2026-05-05 14:04 -2.19589 16.84349 16940 ft 236 kts 32°
2026-05-05 14:04 -2.18222 16.85227 16940 ft 236 kts 32°
2026-05-05 14:05 -2.16837 16.86117 16941 ft 236 kts 32°
2026-05-05 14:05 -2.15447 16.87010 16941 ft 236 kts 32°
2026-05-05 14:05 -2.14064 16.87898 16941 ft 236 kts 32°
2026-05-05 14:05 -2.12691 16.88778 16941 ft 236 kts 32°
2026-05-05 14:06 -2.11302 16.89671 16942 ft 236 kts 32°
2026-05-05 14:06 -2.09915 16.90561 16942 ft 236 kts 32°
2026-05-05 14:06 -2.08525 16.91454 16934 ft 236 kts 32°
2026-05-05 14:06 -2.07153 16.92333 16933 ft 236 kts 32°
2026-05-05 14:07 -2.05759 16.93229 16936 ft 236 kts 32°
2026-05-05 14:07 -2.04389 16.94109 16936 ft 236 kts 32°
2026-05-05 14:07 -2.02998 16.95001 16935 ft 237 kts 32°
2026-05-05 14:07 -2.01609 16.95894 16937 ft 237 kts 32°
2026-05-05 14:08 -2.00222 16.96783 16937 ft 237 kts 32°
2026-05-05 14:08 -1.98849 16.97665 16932 ft 237 kts 32°
2026-05-05 14:08 -1.97455 16.98559 16932 ft 237 kts 32°
2026-05-05 14:08 -1.96070 16.99448 16933 ft 237 kts 32°
2026-05-05 14:09 -1.94686 17.00338 16935 ft 237 kts 32°
2026-05-05 14:09 -1.93313 17.01220 16932 ft 237 kts 32°
2026-05-05 14:09 -1.91920 17.02113 16933 ft 237 kts 32°
2026-05-05 14:09 -1.90528 17.03006 16935 ft 237 kts 32°
2026-05-05 14:10 -1.89139 17.03898 16934 ft 237 kts 32°
2026-05-05 14:10 -1.87766 17.04780 16933 ft 237 kts 32°
2026-05-05 14:10 -1.86372 17.05673 16928 ft 237 kts 32°
2026-05-05 14:10 -1.84980 17.06567 16928 ft 237 kts 32°
2026-05-05 14:11 -1.83589 17.07461 16929 ft 237 kts 32°
2026-05-05 14:11 -1.82195 17.08354 16927 ft 237 kts 32°
2026-05-05 14:11 -1.80817 17.09239 16929 ft 237 kts 32°
2026-05-05 14:11 -1.79421 17.10135 16931 ft 238 kts 32°
2026-05-05 14:12 -1.78038 17.11022 16931 ft 238 kts 32°
2026-05-05 14:12 -1.76634 17.11923 16932 ft 238 kts 32°
2026-05-05 14:12 -1.75236 17.12820 16931 ft 238 kts 32°
2026-05-05 14:12 -1.73856 17.13706 16933 ft 238 kts 32°
2026-05-05 14:13 -1.72458 17.14602 16930 ft 238 kts 32°
2026-05-05 14:13 -1.71061 17.15500 16930 ft 238 kts 32°
2026-05-05 14:13 -1.69679 17.16387 16930 ft 238 kts 32°
2026-05-05 14:13 -1.68279 17.17284 16931 ft 238 kts 32°
2026-05-05 14:14 -1.66884 17.18180 16927 ft 238 kts 32°
2026-05-05 14:14 -1.65508 17.19062 16927 ft 238 kts 32°
2026-05-05 14:14 -1.64116 17.19956 16930 ft 237 kts 32°
2026-05-05 14:14 -1.62722 17.20850 16931 ft 237 kts 32°
2026-05-05 14:15 -1.61327 17.21746 16929 ft 237 kts 32°
2026-05-05 14:15 -1.59934 17.22639 16928 ft 237 kts 32°
2026-05-05 14:15 -1.58556 17.23522 16926 ft 237 kts 32°
2026-05-05 14:15 -1.57166 17.24414 16928 ft 237 kts 32°
2026-05-05 14:16 -1.55776 17.25306 16928 ft 237 kts 32°
2026-05-05 14:16 -1.54383 17.26200 16927 ft 237 kts 32°
2026-05-05 14:16 -1.52992 17.27092 16926 ft 237 kts 32°
2026-05-05 14:16 -1.51616 17.27975 16929 ft 237 kts 32°
2026-05-05 14:17 -1.50225 17.28868 16929 ft 237 kts 32°
2026-05-05 14:17 -1.48830 17.29762 16927 ft 237 kts 32°
2026-05-05 14:17 -1.47440 17.30654 16927 ft 237 kts 32°
2026-05-05 14:17 -1.46070 17.31533 16925 ft 237 kts 32°
2026-05-05 14:18 -1.44678 17.32427 16927 ft 237 kts 32°
2026-05-05 14:18 -1.43286 17.33318 16927 ft 237 kts 32°
2026-05-05 14:18 -1.41896 17.34211 16924 ft 237 kts 32°
2026-05-05 14:18 -1.40519 17.35094 16923 ft 237 kts 32°
2026-05-05 14:19 -1.39129 17.35986 16923 ft 237 kts 32°
2026-05-05 14:19 -1.37733 17.36880 16924 ft 237 kts 32°
2026-05-05 14:19 -1.36359 17.37763 16925 ft 237 kts 32°
2026-05-05 14:19 -1.34965 17.38657 16924 ft 237 kts 32°
2026-05-05 14:20 -1.33572 17.39550 16926 ft 237 kts 32°
2026-05-05 14:20 -1.32182 17.40441 16927 ft 237 kts 32°
2026-05-05 14:20 -1.30810 17.41322 16924 ft 237 kts 32°
2026-05-05 14:20 -1.29417 17.42214 16925 ft 237 kts 32°
2026-05-05 14:21 -1.28026 17.43108 16923 ft 237 kts 32°
2026-05-05 14:21 -1.26633 17.44000 16924 ft 237 kts 32°
2026-05-05 14:21 -1.25242 17.44893 16925 ft 237 kts 32°
2026-05-05 14:21 -1.23866 17.45774 16924 ft 237 kts 32°
2026-05-05 14:22 -1.22473 17.46669 16926 ft 237 kts 32°
2026-05-05 14:22 -1.21082 17.47560 16924 ft 237 kts 32°
2026-05-05 14:22 -1.19690 17.48453 16922 ft 237 kts 32°
2026-05-05 14:22 -1.18300 17.49345 16922 ft 237 kts 32°
2026-05-05 14:23 -1.16925 17.50227 16921 ft 237 kts 32°
2026-05-05 14:23 -1.15536 17.51117 16927 ft 237 kts 32°
2026-05-05 14:23 -1.14141 17.52012 16921 ft 237 kts 32°
2026-05-05 14:23 -1.12750 17.52904 16925 ft 238 kts 32°
2026-05-05 14:24 -1.11822 17.53499 16924 ft 238 kts 32°
2026-05-05 14:24 -1.10425 17.54395 16924 ft 238 kts 32°
2026-05-05 14:24 -1.09024 17.55293 16925 ft 238 kts 32°
2026-05-05 14:24 -1.07645 17.56177 16925 ft 238 kts 33°
2026-05-05 14:25 -1.06245 17.57076 16927 ft 238 kts 33°
2026-05-05 14:25 -1.04850 17.57969 16925 ft 238 kts 33°
2026-05-05 14:25 -1.03450 17.58868 16926 ft 238 kts 33°
2026-05-05 14:25 -1.02071 17.59751 16926 ft 238 kts 33°
2026-05-05 14:26 -1.00671 17.60650 16926 ft 238 kts 33°
2026-05-05 14:26 -0.99272 17.61547 16928 ft 238 kts 33°
2026-05-05 14:26 -0.97892 17.62432 16923 ft 238 kts 33°
2026-05-05 14:26 -0.96486 17.63332 16920 ft 238 kts 33°
2026-05-05 14:27 -0.95088 17.64230 16920 ft 238 kts 33°
2026-05-05 14:27 -0.93705 17.65117 16918 ft 238 kts 33°
2026-05-05 14:27 -0.92304 17.66015 16922 ft 238 kts 33°
2026-05-05 14:27 -0.90905 17.66911 16922 ft 238 kts 33°
2026-05-05 14:28 -0.89523 17.67796 16921 ft 238 kts 33°
2026-05-05 14:28 -0.88125 17.68694 16919 ft 239 kts 33°
2026-05-05 14:28 -0.86722 17.69594 16919 ft 239 kts 33°
2026-05-05 14:28 -0.85323 17.70491 16923 ft 239 kts 33°
2026-05-05 14:29 -0.83938 17.71379 16917 ft 239 kts 33°
2026-05-05 14:29 -0.82533 17.72279 16916 ft 239 kts 33°
2026-05-05 14:29 -0.81131 17.73178 16919 ft 239 kts 33°
2026-05-05 14:29 -0.79745 17.74067 16918 ft 239 kts 33°
2026-05-05 14:30 -0.78348 17.74965 16922 ft 239 kts 33°
2026-05-05 14:30 -0.76941 17.75863 16921 ft 239 kts 33°
2026-05-05 14:30 -0.75537 17.76765 16918 ft 239 kts 33°
2026-05-05 14:30 -0.74153 17.77652 16917 ft 239 kts 33°
2026-05-05 14:31 -0.72753 17.78550 16917 ft 239 kts 33°
2026-05-05 14:31 -0.71350 17.79449 16917 ft 239 kts 33°
2026-05-05 14:31 -0.69953 17.80345 16918 ft 239 kts 33°
2026-05-05 14:31 -0.68568 17.81232 16918 ft 239 kts 33°
2026-05-05 14:32 -0.67166 17.82131 16917 ft 239 kts 33°
2026-05-05 14:32 -0.65759 17.83035 16918 ft 239 kts 33°
2026-05-05 14:32 -0.64285 17.83800 16911 ft 238 kts 22°
2026-05-05 14:32 -0.62758 17.84398 16909 ft 238 kts 22°
2026-05-05 14:33 -0.61218 17.85024 16912 ft 238 kts 23°
2026-05-05 14:33 -0.59684 17.85668 16914 ft 239 kts 23°
2026-05-05 14:33 -0.58167 17.86301 16913 ft 239 kts 23°
2026-05-05 14:33 -0.56628 17.86937 16915 ft 239 kts 23°
2026-05-05 14:34 -0.55080 17.87579 16912 ft 239 kts 23°
2026-05-05 14:34 -0.53560 17.88209 16914 ft 239 kts 23°
2026-05-05 14:34 -0.52019 17.88849 16914 ft 239 kts 23°
2026-05-05 14:34 -0.50475 17.89489 16915 ft 239 kts 23°
2026-05-05 14:35 -0.48940 17.90126 16913 ft 239 kts 23°
2026-05-05 14:35 -0.47419 17.90757 16916 ft 239 kts 23°
2026-05-05 14:35 -0.45880 17.91396 16915 ft 239 kts 23°
2026-05-05 14:35 -0.44339 17.92034 16916 ft 239 kts 23°
2026-05-05 14:36 -0.42805 17.92670 16917 ft 239 kts 23°
2026-05-05 14:36 -0.41283 17.93301 16917 ft 239 kts 23°
2026-05-05 14:36 -0.39744 17.93940 16916 ft 239 kts 23°
2026-05-05 14:36 -0.38204 17.94578 16915 ft 239 kts 23°
2026-05-05 14:37 -0.36685 17.95209 16912 ft 239 kts 23°
2026-05-05 14:37 -0.35128 17.95855 16668 ft 247 kts 23°
2026-05-05 14:37 -0.33511 17.96525 16352 ft 254 kts 23°
2026-05-05 14:37 -0.31864 17.97208 16007 ft 261 kts 23°
2026-05-05 14:38 -0.30162 17.97914 15640 ft 267 kts 23°
2026-05-05 14:38 -0.28417 17.98639 15177 ft 275 kts 23°
2026-05-05 14:38 -0.26626 17.99380 14758 ft 280 kts 23°
2026-05-05 14:38 -0.24828 18.00127 14354 ft 284 kts 23°
2026-05-05 14:39 -0.22989 18.00889 13949 ft 286 kts 23°
2026-05-05 14:39 -0.21130 18.01660 13547 ft 288 kts 23°
2026-05-05 14:39 -0.19294 18.02421 13116 ft 289 kts 23°
2026-05-05 14:39 -0.17426 18.03196 12692 ft 290 kts 24°
2026-05-05 14:40 -0.15559 18.03970 12280 ft 290 kts 24°
2026-05-05 14:40 -0.13693 18.04744 11875 ft 290 kts 24°
2026-05-05 14:40 -0.11851 18.05508 11486 ft 289 kts 24°
2026-05-05 14:40 -0.09990 18.06280 11098 ft 289 kts 24°
2026-05-05 14:41 -0.08131 18.07051 10725 ft 288 kts 25°
2026-05-05 14:41 -0.06277 18.07820 10355 ft 288 kts 25°
2026-05-05 14:41 -0.04449 18.08577 10002 ft 287 kts 25°
2026-05-05 14:41 -0.02606 18.09342 9640 ft 286 kts 25°
2026-05-05 14:42 -0.00765 18.10106 9247 ft 285 kts 25°
2026-05-05 14:42 0.01065 18.10864 8775 ft 284 kts 25°
2026-05-05 14:42 0.02889 18.11620 8268 ft 284 kts 25°
2026-05-05 14:42 0.04694 18.12369 7785 ft 284 kts 24°
2026-05-05 14:43 0.06533 18.13133 7301 ft 284 kts 24°
2026-05-05 14:43 0.08365 18.13892 6829 ft 285 kts 24°
2026-05-05 14:43 0.10181 18.14645 6378 ft 285 kts 24°
2026-05-05 14:43 0.12025 18.15410 5896 ft 285 kts 24°
2026-05-05 14:44 0.13845 18.16164 5430 ft 286 kts 24°
2026-05-05 14:44 0.15680 18.16925 4977 ft 285 kts 24°
2026-05-05 14:44 0.17434 18.17836 4495 ft 284 kts 36°
2026-05-05 14:44 0.18788 18.19268 3991 ft 284 kts 57°
2026-05-05 14:45 0.19548 18.21057 3500 ft 284 kts 77°
2026-05-05 14:45 0.19642 18.23024 3016 ft 283 kts 97°
2026-05-05 14:45 0.19055 18.24864 2537 ft 276 kts 118°
2026-05-05 14:45 0.17872 18.26332 2139 ft 267 kts 140°
2026-05-05 14:46 0.16299 18.27217 1896 ft 254 kts 160°
2026-05-05 14:46 0.14658 18.27565 1941 ft 231 kts 175°
2026-05-05 14:46 0.13132 18.27637 2059 ft 208 kts 177°
2026-05-05 14:46 0.11743 18.27735 2087 ft 193 kts 174°
2026-05-05 14:47 0.10440 18.27893 2079 ft 183 kts 172°
2026-05-05 14:47 0.09220 18.28045 2102 ft 165 kts 173°
2026-05-05 14:47 0.08162 18.28168 2057 ft 146 kts 173°
2026-05-05 14:47 0.07200 18.28289 1926 ft 133 kts 173°
2026-05-05 14:48 0.06314 18.28383 1770 ft 124 kts 173°
2026-05-05 14:48 0.05464 18.28495 1574 ft 123 kts 172°
2026-05-05 14:48 0.04615 18.28599 1381 ft 125 kts 172°
2026-05-05 14:48 0.03763 18.28698 1188 ft 121 kts 172°
2026-05-05 14:49 0.02951 18.28793 1052 ft 107 kts 172°
2026-05-05 14:49 0.02354 18.28863 1048 ft 55 kts 173°
2026-05-05 14:49 0.02150 18.28889 1043 ft 14 kts 159°
2026-05-05 14:49 0.02126 18.28947 1042 ft 7 kts 83°
2026-05-05 14:50 0.02131 18.28986 1043 ft 4 kts 82°
2026-05-05 14:50 0.02134 18.29002 1043 ft 1 kts 79°
2026-05-05 14:50 0.02136 18.29012 1042 ft 5 kts 85°
2026-05-05 14:50 0.02120 18.29048 1042 ft 2 kts 166°
2026-05-05 14:51 0.02109 18.29043 1042 ft 2 kts 243°
2026-05-05 14:51 0.02106 18.29031 1043 ft 0 kts 259°